Bismarck, ND

4:41 AM CDT on September 27, 2016 (GMT -0500)
Bismarck Municipal

Weather History for KBIS - January, 2012

Change the Weather History Date:

Monday, January 16, 2012

  Actual Average Record
Temperature  
Mean Temperature 8 °F 12 °F  
Max Temperature 13 °F 23 °F 54 °F (1961)
Min Temperature 2 °F 2 °F -35 °F (1890)
Degree Days  
Heating Degree Days 57 53  
Month to date heating degree days 604 843  
Since 1 July heating degree days 3566 4343  
Cooling Degree Days 0 0  
Month to date cooling degree days 0 0  
Year to date cooling degree days 0 0  
Moisture  
Dew Point -1 °F    
Average Humidity 75    
Maximum Humidity 83    
Minimum Humidity 67    
Precipitation  
Precipitation 0.00 in 0.01 in 0.59 in (1911)
Month to date precipitation 0.04 0.24  
Year to date precipitation 0.04 0.24  
Snow  
Snow 0.00 in 0.30 in 6.20 in (1933)
Month to date snowfall 0.4 5.1  
Since 1 July snowfall 4.3 25.6  
Snow Depth 0.00 in    
Sea Level Pressure  
Sea Level Pressure 30.14 in    
Wind  
Wind Speed 11 mph (NNW)    
Max Wind Speed 21 mph    
Max Gust Speed 28 mph    
Visibility 10 miles    
Events      
T = Trace of Precipitation, MM = Missing Value Source: NWS Daily Summary

Daily Weather History Graph

Daily Weather History Graph

Search for Another Location

Airport or City:

Trip Planner

Search our weather history database for the weather conditions in past years. The results will help you decide how hot, cold, wet, or windy it might be!

Date:

Astronomy

Jan. 16, 2012 Rise Set
Actual Time 8:23 AM CST 5:22 PM CST
Civil Twilight 7:49 AM CST 5:56 PM CST
Nautical Twilight 7:11 AM CST 6:34 PM CST
Astronomical Twilight 6:35 AM CST 7:10 PM CST
Moon 1:26 AM CST (1/16) 11:43 AM CST (1/16)
Length of Visible Light 10h 07m
Length of Day
8h 59m
Last Quarter, 46% of the Moon is Illuminated
Jan 16
Last Quarter
Jan 23
New
Jan 30
First Quarter
Feb 7
Full
Feb 14
Last Quarter

Hourly Weather History & Observations

Time (CST) Temp. Windchill Dew Point Humidity Pressure Visibility Wind Dir Wind Speed Gust Speed Precip Events Conditions
12:24 AM 12.2 °F -5.3 °F 3.2 °F 67% 29.97 in 10.0 mi NW 18.4 mph 25.3 mph N/A   Scattered Clouds
12:52 AM 12.0 °F -4.0 °F 3.9 °F 70% 30.06 in 10.0 mi NW 15.0 mph 21.9 mph N/A   Scattered Clouds
1:26 AM 12.2 °F -3.1 °F 5.0 °F 73% 29.97 in 10.0 mi NW 13.8 mph - N/A   Mostly Cloudy
1:52 AM 10.9 °F -4.7 °F 3.9 °F 73% 30.05 in 10.0 mi NNW 13.8 mph - N/A   Overcast
2:20 AM 8.6 °F -7.0 °F 1.4 °F 73% 29.99 in 10.0 mi NNW 12.7 mph 23.0 mph N/A   Partly Cloudy
2:52 AM 8.1 °F -9.6 °F -0.0 °F 70% 30.06 in 10.0 mi NNW 16.1 mph 25.3 mph N/A   Clear
3:52 AM 7.0 °F -7.5 °F 1.0 °F 77% 30.09 in 10.0 mi NW 10.4 mph - N/A   Partly Cloudy
4:06 AM 6.8 °F -10.7 °F -0.4 °F 72% 30.01 in 10.0 mi NW 15.0 mph 21.9 mph N/A   Mostly Cloudy
4:31 AM 6.8 °F -11.8 °F -0.4 °F 72% 30.01 in 10.0 mi NW 17.3 mph 21.9 mph N/A   Scattered Clouds
4:52 AM 6.1 °F -12.8 °F -0.9 °F 73% 30.09 in 10.0 mi NW 17.3 mph 27.6 mph N/A   Clear
5:52 AM 5.0 °F -4.1 °F -0.9 °F 76% 30.10 in 10.0 mi NNW 4.6 mph 18.4 mph N/A   Scattered Clouds
6:52 AM 5.0 °F -10.0 °F -0.9 °F 76% 30.12 in 10.0 mi NNW 10.4 mph - N/A   Mostly Cloudy
7:32 AM 5.0 °F -8.1 °F -0.4 °F 78% 30.05 in 10.0 mi NNW 8.1 mph - N/A   Overcast
7:52 AM 5.0 °F -10.0 °F -0.9 °F 76% 30.15 in 10.0 mi NW 10.4 mph - N/A   Mostly Cloudy
8:05 AM 5.0 °F -10.0 °F -0.4 °F 78% 30.05 in 10.0 mi NNW 10.4 mph - N/A   Scattered Clouds
8:24 AM 3.2 °F -12.2 °F -0.4 °F 85% 30.05 in 10.0 mi NNW 10.4 mph - N/A   Mostly Cloudy
8:50 AM 5.0 °F -6.9 °F -0.4 °F 78% 30.07 in 9.0 mi NNW 6.9 mph - N/A   Overcast
8:52 AM 5.0 °F -4.1 °F -0.9 °F 76% 30.18 in 9.0 mi NNW 4.6 mph - N/A   Overcast
9:52 AM 5.0 °F -11.6 °F -0.9 °F 76% 30.19 in 5.0 mi NNW 12.7 mph - N/A   Haze
10:21 AM 6.8 °F -8.6 °F -2.2 °F 67% 30.09 in 10.0 mi NNW 11.5 mph 23.0 mph N/A   Scattered Clouds
10:42 AM 6.8 °F -10.0 °F -2.2 °F 67% 30.09 in 5.0 mi NNW 13.8 mph 20.7 mph N/A   Haze
10:52 AM 6.1 °F -9.5 °F -2.0 °F 69% 30.22 in 3.0 mi NNW 11.5 mph - N/A   Haze
11:09 AM 6.8 °F -8.6 °F -0.4 °F 72% 30.09 in 10.0 mi North 11.5 mph - N/A   Overcast
11:39 AM 6.8 °F -9.3 °F -2.2 °F 67% 30.09 in 10.0 mi NNW 12.7 mph - N/A   Scattered Clouds
11:52 AM 7.0 °F -9.8 °F -2.0 °F 67% 30.22 in 10.0 mi NNW 13.8 mph - N/A   Partly Cloudy
12:38 PM 6.8 °F -8.6 °F -2.2 °F 67% 30.08 in 10.0 mi NNW 11.5 mph - N/A   Overcast
12:52 PM 8.1 °F -7.0 °F -0.9 °F 67% 30.20 in 10.0 mi North 11.5 mph - N/A   Mostly Cloudy
1:13 PM 8.6 °F -7.7 °F -0.4 °F 67% 30.08 in 10.0 mi North 13.8 mph - N/A   Mostly Cloudy
1:52 PM 9.0 °F -5.1 °F -0.9 °F 64% 30.20 in 10.0 mi NNW 10.4 mph - N/A   Scattered Clouds
1:59 PM 8.6 °F -3.7 °F -0.4 °F 67% 30.08 in 10.0 mi North 8.1 mph - N/A   Mostly Cloudy
2:52 PM 9.0 °F -6.6 °F -0.9 °F 64% 30.19 in 10.0 mi North 12.7 mph - N/A   Overcast
3:07 PM 8.6 °F -4.7 °F -0.4 °F 67% 30.07 in 10.0 mi North 9.2 mph - N/A   Scattered Clouds
3:45 PM 8.6 °F -5.5 °F -0.4 °F 67% 30.09 in 10.0 mi North 10.4 mph - N/A   Mostly Cloudy
3:52 PM 9.0 °F -5.9 °F -0.9 °F 64% 30.21 in 10.0 mi NNW 11.5 mph - N/A   Scattered Clouds
4:52 PM 9.0 °F -5.9 °F -0.9 °F 64% 30.24 in 10.0 mi North 11.5 mph - N/A   Clear
5:52 PM 8.1 °F -5.3 °F -0.9 °F 67% 30.27 in 10.0 mi NNW 9.2 mph - N/A   Partly Cloudy
6:52 PM 7.0 °F -7.5 °F -0.9 °F 70% 30.29 in 10.0 mi NNW 10.4 mph - N/A   Partly Cloudy
7:52 PM 6.1 °F -8.7 °F -2.0 °F 69% 30.32 in 10.0 mi NNW 10.4 mph - N/A   Clear
8:08 PM 6.8 °F -3.5 °F -2.2 °F 67% 30.20 in 10.0 mi NNW 5.8 mph - N/A   Mostly Cloudy
8:52 PM 6.1 °F -5.6 °F -2.0 °F 69% 30.33 in 10.0 mi NNW 6.9 mph - N/A   Overcast
9:42 PM 6.8 °F -7.8 °F -2.2 °F 67% 30.20 in 10.0 mi NNW 10.4 mph - N/A   Partly Cloudy
9:52 PM 6.1 °F -8.7 °F -0.9 °F 73% 30.34 in 10.0 mi NNW 10.4 mph - N/A   Scattered Clouds
10:06 PM 6.8 °F -5.9 °F -0.4 °F 72% 30.22 in 10.0 mi NNW 8.1 mph - N/A   Mostly Cloudy
10:52 PM 3.9 °F -9.4 °F -2.9 °F 73% 30.36 in 10.0 mi North 8.1 mph - N/A   Overcast
11:50 PM 1.4 °F -12.5 °F -4.0 °F 78% 30.24 in 10.0 mi North 8.1 mph - N/A   Scattered Clouds
11:52 PM 1.9 °F -11.8 °F -5.1 °F 72% 30.38 in 10.0 mi North 8.1 mph - N/A   Partly Cloudy